This is the latest recevied weather packets stored in our database for station/object KB0BS-13. If no packets are shown the sender has not sent any weather packets the latest 10 day(s).
| Time | Temp. | Humidity | Pressure | Rain* | Wind** | Luminosity | Snow |
|---|---|---|---|---|---|---|---|
| 1777832776 | 9.44° C | 78% | 1005.8 hPa | 0 mm | - | 272 W/m² | - |
| 1777832474 | 9.44° C | 80% | 1005.7 hPa | 0 mm | - | 316 W/m² | - |
| 1777832171 | 9.44° C | 78% | 1005.8 hPa | 0 mm | - | 334 W/m² | - |
| 1777831868 | 9.44° C | 79% | 1005.8 hPa | 0 mm | - | 626 W/m² | - |
| 1777831565 | 10.56° C | 75% | 1005.9 hPa | 0 mm | - | 322 W/m² | - |
| 1777831263 | 10° C | 77% | 1005.8 hPa | 0 mm | - | 376 W/m² | - |
| 1777830959 | 10° C | 78% | 1005.7 hPa | 0 mm | - | 820 W/m² | - |
| 1777830656 | 10° C | 76% | 1006.3 hPa | 0 mm | - | 458 W/m² | - |
| 1777830353 | 9.44° C | 78% | 1005.9 hPa | 0 mm | - | 594 W/m² | - |
| 1777830050 | 10° C | 77% | 1006.3 hPa | 0 mm | - | 749 W/m² | - |
| 1777829745 | 9.44° C | 79% | 1006.4 hPa | 0 mm | - | 691 W/m² | - |
| 1777829441 | 9.44° C | 80% | 1006.3 hPa | 0 mm | - | 696 W/m² | - |
| 1777829139 | 9.44° C | 79% | 1006.4 hPa | 0 mm | - | 689 W/m² | - |
| 1777828836 | 8.89° C | 78% | 1006.4 hPa | 0 mm | - | 687 W/m² | - |
| 1777828532 | 8.33° C | 81% | 1006.4 hPa | 0 mm | - | 689 W/m² | - |
| 1777828230 | 8.33° C | 82% | 1006.6 hPa | 0 mm | - | 703 W/m² | - |
| 1777827926 | 8.33° C | 82% | 1006.6 hPa | 0 mm | - | 781 W/m² | - |
| 1777827623 | 8.89° C | 81% | 1007 hPa | 0 mm | - | 468 W/m² | - |
| 1777827321 | 8.33° C | 84% | 1007 hPa | 0 mm | - | 240 W/m² | - |
| 1777827017 | 8.89° C | 84% | 1007 hPa | 0 mm | - | 462 W/m² | - |
| 1777826714 | 7.78° C | 82% | 1007.1 hPa | 0 mm | - | 431 W/m² | - |
| 1777826411 | 7.78° C | 83% | 1007 hPa | 0 mm | - | 512 W/m² | - |
| 1777826108 | 7.78° C | 84% | 1007.2 hPa | 0 mm | - | 823 W/m² | - |
| 1777825805 | 7.22° C | 93% | 1007.1 hPa | 0 mm | - | 443 W/m² | - |
| 1777825502 | 6.11° C | 94% | 1007.4 hPa | 0 mm | - | 495 W/m² | - |
* Rain latest hour (hover to see other rain measurements)
** Current wind speed in m/s (hover to see current wind gust speed)